Regional Weather Roundup
Issued by NWS Boston, MA

Current Version | Previous Version | Text Only | Print | Product List | Glossary On
Versions: 1 2 3 4 5 6 7 8 9 10 11 12 13 14 15 16 17 18 19 20 21 22 23 24 25 26 27 28 29 30 31 32 33 34 35 36 37 38 39 40 41 42 43 44 45 46 47 48 49 50
000 ASUS41 KBOX 132204 RWRBOX REGIONAL WEATHER ROUNDUP NATIONAL WEATHER SERVICE BOSTON/NORTON MA 600 PM EDT TUE APR 13 2021 NOTE: "FAIR" INDICATES FEW OR NO CLOUDS BELOW 12,000 FEET WITH NO SIGNIFICANT WEATHER AND/OR OBSTRUCTIONS TO VISIBILITY. MAZALL-132300- EASTERN MASSACHUSETTS CITY SKY/WX TMP DP RH WIND PRES REMARKS BOSTON MOSUNNY 54 40 59 SE5 30.03S BEVERLY NOT AVBL LAWRENCE SUNNY 62 38 40 E7 30.03S BEDFORD MOSUNNY 61 40 45 NE7 30.01R BLUE HILL N/A 55 39 54 VRB7 30.02R NORWOOD SUNNY 59 39 47 NE8 30.03R MARSHFIELD SUNNY 54 39 58 NE5 30.03S PLYMOUTH SUNNY 54 39 57 NE8 30.02S TAUNTON SUNNY 57 38 48 VRB6 30.02S NEW BEDFORD SUNNY 56 38 50 NE15G21 30.02R $$ MAZALL-132300- CAPE COD AND THE ISLANDS CITY SKY/WX TMP DP RH WIND PRES REMARKS FALMOUTH SUNNY 52 39 62 NE9G18 30.02S HYANNIS SUNNY 51 41 68 N10 30.00S CHATHAM SUNNY 50 39 66 NE9 30.02R PROVINCETOWN N/A 48 42 80 N6 30.03S NANTUCKET SUNNY 48 41 76 N17 30.00S MARTHAS VNYRD SUNNY 53 40 61 NE13G23 30.01S $$ MAZALL-132300- CENTRAL AND WESTERN MASSACHUSETTS CITY SKY/WX TMP DP RH WIND PRES REMARKS WORCESTER MOSUNNY 60 39 45 NE6 30.02R FITCHBURG PTSUNNY 62 40 44 VRB3 30.01R ORANGE CLOUDY 63 40 42 VRB5 30.01R SPRINGFIELD CLOUDY 64 40 41 E6 29.99R WESTFIELD CLOUDY 64 42 44 E3 29.99R NORTH ADAMS CLOUDY 63 41 44 SW5 30.00R PITTSFIELD CLOUDY 61 41 47 NW6 29.99S $$ RIZALL-132300- RHODE ISLAND CITY SKY/WX TMP DP RH WIND PRES REMARKS PROVIDENCE SUNNY 61 39 44 NE14 30.02R NEWPORT SUNNY 57 39 51 N12 30.02R BLOCK ISLAND SUNNY 47 40 76 E13 30.03S SMITHFIELD SUNNY 59 40 49 NE13 30.02R WESTERLY SUNNY 52 41 66 SE10 30.01R $$ CTZALL-132300- CONNECTICUT CITY SKY/WX TMP DP RH WIND PRES REMARKS BRADLEY INTL PTSUNNY 64 40 41 NW3 29.99R HARTFORD CLOUDY 65 41 41 N5 30.00R BRIDGEPORT PTSUNNY 57 42 57 SW10 30.01R DANBURY CLOUDY 65 41 41 NW3 30.01S GROTON SUNNY 51 42 71 S10 30.02R NEW HAVEN PTSUNNY 56 44 64 S6 30.02R CHESTER FAIR 54 39 58 S8 30.03R MERIDEN CLOUDY 64 40 41 MISG 30.00R WILLIMANTIC MOSUNNY 62 40 44 NE9 30.02R OXFORD CLOUDY 61 44 53 N3 30.01R $$ MEZ002-015-021-024-NHZ003-005-008-011-012-014-VTZ005-008-132300- NORTHERN NEW ENGLAND CITY SKY/WX TMP DP RH WIND PRES REMARKS PORTLAND ME CLOUDY 55 41 59 S9 30.01R BANGOR ME MOSUNNY 60 36 40 NE15 30.00S CONCORD NH CLOUDY 63 39 41 NE3 30.00S MANCHESTER NH MOSUNNY 63 39 41 SE7 29.99R NASHUA NH PTSUNNY 62 41 46 SE10 30.01R PORTSMOUTH NH PTSUNNY 60 36 41 E8 30.02R JAFFREY NH CLOUDY 61 40 45 CALM 30.01R KEENE NH CLOUDY 63 42 46 E3 30.00R BURLINGTON VT PTSUNNY 66 40 38 N13 30.00S MT. WASHINGTON NOT AVBL $$ NYZ052-076-132300- EASTERN NEW YORK CITY SKY/WX TMP DP RH WIND PRES REMARKS ALBANY PTSUNNY 62 41 46 CALM 30.01R NEW YORK CITY MOSUNNY 64 39 39 NW8 30.01S $$ ANZALL-132300- MARINE OBSERVATIONS STATION/POSITION TIME TEMP WIND PRES VSBY WAVE AIR SEA DIR/SP/G HT/PER (UTC) (F) (DEG/KT/KT) (MB) (MI) (FT/S) BOSTON BUOY 2140 47 46 200/ 2/ 4 1017.4R BUZZARDS BAY 2100 60/ 14/ 14 1017.4S NANTUCKET SOUND 2140 47 N/A MASS BAY-STELLWA 2104 52 20/ 2/ 2 1015.8S 1 7/8 4/ 8 ISLE OF SHOALS 2100 49 200/ 7/ 7 1016.0R S OF BLOCK IS 2126 44 N/A 4/ 8 $$ ......................KEY......................... SKY/WX - SKY CONDITION/PRESENT WEATHER TMP - TEMPERATURE IN FAHRENHEIT DWPT - DEWPOINT IN FAHRENHEIT RH - RELATIVE HUMIDITY IN PERCENT WIND - DIRECTION AND SPEED IN MPH PRES - MEAN SEA LEVEL PRESSURE IN INCHES OF HG WCI - WIND CHILL INDEX VSB - VISIBILITY IN MILES HX - HEAT INDEX TC - TEMPERATURE IN CELSIUS VRB - VARIABLE WIND DIRECTION N/A - NOT AVAILABLE

USA.gov is the U.S. government's official web portal to all federal, state and local government web resources and services.